TimePDT,TemperatureF,Dew PointF,Humidity,Sea Level PressureIn,VisibilityMPH,Wind Direction,Wind SpeedMPH,Gust SpeedMPH,PrecipitationIn,Events,Conditions,WindDirDegrees,DateUTC
12:15 AM,71.6,35.6,27,29.92,10.0,NW,11.5,-,N/A,,Clear,320,2013-07-16 07:15:00
12:35 AM,68.0,35.6,30,29.93,10.0,NNW,11.5,-,N/A,,Clear,330,2013-07-16 07:35:00
12:55 AM,68.0,35.6,30,29.93,10.0,NW,8.1,-,N/A,,Clear,320,2013-07-16 07:55:00
1:15 AM,69.8,33.8,27,29.93,10.0,NW,10.4,-,N/A,,Clear,320,2013-07-16 08:15:00
1:35 AM,64.4,33.8,32,29.93,10.0,NNE,4.6,-,N/A,,Clear,20,2013-07-16 08:35:00
1:55 AM,62.6,33.8,34,29.93,10.0,North,6.9,-,N/A,,Clear,10,2013-07-16 08:55:00
2:15 AM,62.6,33.8,34,29.93,10.0,North,6.9,-,N/A,,Clear,10,2013-07-16 09:15:00
2:35 AM,60.8,33.8,36,29.92,10.0,North,5.8,-,N/A,,Clear,10,2013-07-16 09:35:00
2:55 AM,60.8,33.8,36,29.92,10.0,NNE,5.8,-,N/A,,Clear,30,2013-07-16 09:55:00
3:15 AM,57.2,33.8,41,29.92,10.0,Calm,Calm,-,N/A,,Clear,0,2013-07-16 10:15:00
3:35 AM,57.2,33.8,41,29.91,10.0,Calm,Calm,-,N/A,,Clear,0,2013-07-16 10:35:00
3:55 AM,55.4,33.8,44,29.91,10.0,Calm,Calm,-,N/A,,Clear,0,2013-07-16 10:55:00
4:15 AM,57.2,33.8,41,29.91,10.0,NNE,4.6,-,N/A,,Clear,30,2013-07-16 11:15:00
4:35 AM,55.4,33.8,44,29.91,10.0,Calm,Calm,-,N/A,,Clear,0,2013-07-16 11:35:00
4:55 AM,55.4,33.8,44,29.92,10.0,South,3.5,-,N/A,,Clear,170,2013-07-16 11:55:00
5:15 AM,55.4,33.8,44,29.93,10.0,Calm,Calm,-,N/A,,Clear,0,2013-07-16 12:15:00
5:35 AM,55.4,33.8,44,29.92,10.0,North,3.5,-,N/A,,Clear,360,2013-07-16 12:35:00
5:55 AM,55.4,33.8,44,29.92,10.0,NW,3.5,-,N/A,,Clear,320,2013-07-16 12:55:00
6:15 AM,59.0,35.6,42,29.92,10.0,North,3.5,-,N/A,,Clear,10,2013-07-16 13:15:00
6:35 AM,62.6,37.4,39,29.92,10.0,Calm,Calm,-,N/A,,Clear,0,2013-07-16 13:35:00
6:55 AM,62.6,37.4,39,29.92,10.0,Calm,Calm,-,N/A,,Clear,0,2013-07-16 13:55:00
7:15 AM,64.4,37.4,37,29.92,10.0,Calm,Calm,-,N/A,,Clear,0,2013-07-16 14:15:00
7:35 AM,66.2,37.4,35,29.92,10.0,Calm,Calm,-,N/A,,Clear,0,2013-07-16 14:35:00
7:55 AM,66.2,39.2,37,29.91,10.0,Calm,Calm,-,N/A,,Clear,0,2013-07-16 14:55:00
8:15 AM,68.0,39.2,35,29.91,10.0,NNE,4.6,-,N/A,,Clear,30,2013-07-16 15:15:00
8:35 AM,69.8,39.2,33,29.92,10.0,Calm,Calm,-,N/A,,Clear,0,2013-07-16 15:35:00
8:55 AM,75.2,41.0,29,29.95,10.0,West,4.6,-,N/A,,Clear,260,2013-07-16 15:55:00
9:15 AM,75.2,39.2,27,29.95,10.0,North,11.5,-,N/A,,Clear,350,2013-07-16 16:15:00
9:35 AM,73.4,39.2,29,29.95,10.0,NNW,16.1,20.7,N/A,,Partly Cloudy,330,2013-07-16 16:35:00
9:55 AM,73.4,39.2,29,29.94,10.0,NW,11.5,-,N/A,,Partly Cloudy,320,2013-07-16 16:55:00
10:15 AM,75.2,39.2,27,29.94,10.0,West,10.4,-,N/A,,Clear,280,2013-07-16 17:15:00
10:35 AM,78.8,41.0,26,29.92,10.0,WSW,6.9,-,N/A,,Clear,250,2013-07-16 17:35:00
10:55 AM,78.8,42.8,28,29.92,10.0,West,5.8,-,N/A,,Clear,280,2013-07-16 17:55:00
11:15 AM,78.8,41.0,26,29.92,10.0,WNW,8.1,-,N/A,,Partly Cloudy,300,2013-07-16 18:15:00
11:35 AM,78.8,44.6,30,29.92,10.0,NW,9.2,-,N/A,,Scattered Clouds,320,2013-07-16 18:35:00
11:55 AM,78.8,42.8,28,29.91,10.0,NNW,9.2,-,N/A,,Partly Cloudy,330,2013-07-16 18:55:00
12:15 PM,78.8,42.8,28,29.92,10.0,NNW,8.1,-,N/A,,Partly Cloudy,340,2013-07-16 19:15:00
12:35 PM,78.8,44.6,30,29.89,10.0,Calm,Calm,-,N/A,,Scattered Clouds,0,2013-07-16 19:35:00
12:55 PM,80.6,44.6,28,29.90,10.0,North,6.9,-,N/A,,Partly Cloudy,10,2013-07-16 19:55:00
1:15 PM,82.4,44.6,26,29.89,10.0,Calm,Calm,-,N/A,,Clear,0,2013-07-16 20:15:00
1:35 PM,84.2,46.4,27,29.88,10.0,West,3.5,-,N/A,,Clear,270,2013-07-16 20:35:00
1:55 PM,84.2,44.6,25,29.87,10.0,NW,8.1,-,N/A,,Clear,310,2013-07-16 20:55:00
2:15 PM,86.0,46.4,25,29.86,10.0,North,4.6,-,N/A,,Clear,10,2013-07-16 21:15:00
2:35 PM,87.8,46.4,24,29.85,10.0,NNE,4.6,-,N/A,,Clear,20,2013-07-16 21:35:00
2:55 PM,86.0,44.6,23,29.84,10.0,Calm,Calm,-,N/A,,Clear,0,2013-07-16 21:55:00
3:15 PM,87.8,46.4,24,29.84,10.0,North,5.8,-,N/A,,Clear,350,2013-07-16 22:15:00
3:35 PM,89.6,46.4,22,29.83,10.0,NNW,5.8,-,N/A,,Clear,340,2013-07-16 22:35:00
3:55 PM,91.4,46.4,21,29.82,10.0,North,9.2,-,N/A,,Clear,10,2013-07-16 22:55:00
4:15 PM,91.4,48.2,23,29.81,10.0,North,8.1,-,N/A,,Clear,10,2013-07-16 23:15:00
4:35 PM,93.2,48.2,21,29.80,10.0,North,10.4,-,N/A,,Clear,360,2013-07-16 23:35:00
4:55 PM,93.2,48.2,21,29.80,10.0,North,12.7,-,N/A,,Clear,360,2013-07-16 23:55:00
5:15 PM,93.2,48.2,21,29.79,10.0,North,12.7,-,N/A,,Clear,350,2013-07-17 00:15:00
5:35 PM,93.2,48.2,21,29.79,10.0,North,11.5,-,N/A,,Clear,350,2013-07-17 00:35:00
5:55 PM,89.6,48.2,24,29.79,10.0,WNW,18.4,23.0,N/A,,Clear,290,2013-07-17 00:55:00
6:15 PM,84.2,46.4,27,29.80,10.0,NW,20.7,26.5,N/A,,Clear,310,2013-07-17 01:15:00
6:35 PM,82.4,44.6,26,29.80,10.0,WNW,19.6,28.8,N/A,,Clear,290,2013-07-17 01:35:00
6:55 PM,82.4,44.6,26,29.81,10.0,NW,23.0,29.9,N/A,,Clear,310,2013-07-17 01:55:00
7:15 PM,80.6,44.6,28,29.82,10.0,WNW,26.5,31.1,N/A,,Partly Cloudy,300,2013-07-17 02:15:00
7:35 PM,75.2,46.4,36,29.81,9.0,NNW,19.6,-,N/A,Thunderstorm,Thunderstorm,330,2013-07-17 02:35:00
7:55 PM,75.2,46.4,36,29.82,10.0,WNW,13.8,24.2,N/A,Thunderstorm,Partly Cloudy,290,2013-07-17 02:55:00
8:15 PM,75.2,46.4,36,29.82,10.0,WNW,10.4,-,N/A,,Clear,300,2013-07-17 03:15:00
8:35 PM,75.2,46.4,36,29.82,10.0,WNW,10.4,-,N/A,,Clear,290,2013-07-17 03:35:00
8:55 PM,75.2,44.6,34,29.83,10.0,West,17.3,24.2,N/A,Thunderstorm,Clear,280,2013-07-17 03:55:00
9:15 PM,71.6,44.6,38,29.84,10.0,WNW,17.3,-,0.01,Thunderstorm,Thunderstorm,290,2013-07-17 04:15:00
9:35 PM,75.2,44.6,34,29.85,10.0,West,23.0,28.8,0.01,,Scattered Clouds,280,2013-07-17 04:35:00
9:55 PM,75.2,42.8,31,29.87,10.0,WNW,20.7,29.9,0.01,Thunderstorm,Mostly Cloudy,290,2013-07-17 04:55:00
10:15 PM,75.2,42.8,31,29.88,10.0,WNW,18.4,29.9,N/A,Thunderstorm,Overcast,300,2013-07-17 05:15:00
10:35 PM,71.6,44.6,38,29.87,10.0,WNW,16.1,-,N/A,,Scattered Clouds,300,2013-07-17 05:35:00
10:55 PM,75.2,42.8,31,29.93,10.0,SW,12.7,24.2,N/A,,Scattered Clouds,230,2013-07-17 05:55:00
11:15 PM,73.4,44.6,36,29.93,10.0,East,16.1,-,N/A,Thunderstorm,Overcast,90,2013-07-17 06:15:00
11:35 PM,69.8,44.6,40,29.93,10.0,ENE,10.4,-,0.01,,Scattered Clouds,70,2013-07-17 06:35:00
11:55 PM,66.2,44.6,46,29.94,10.0,SW,5.8,-,0.01,,Partly Cloudy,220,2013-07-17 06:55:00